This is the latest recevied weather packets stored in our database for station/object IW3HBX-13. If no packets are shown the sender has not sent any weather packets the latest 1 day(s).
| Time | Temp. | Humidity | Pressure | Rain* | Wind** | Luminosity | Snow |
|---|---|---|---|---|---|---|---|
| 1777982767 | 15° C | 84% | 1014.7 hPa | 0 mm | 2.24 m/s, 59° | 49 W/m² | - |
| 1777982047 | 15.56° C | 81% | 1014.8 hPa | 0 mm | 1.79 m/s, 66° | 114 W/m² | - |
| 1777981687 | 15.56° C | 80% | 1014.7 hPa | 0 mm | 1.79 m/s, 74° | 106 W/m² | - |
| 1777981327 | 15.56° C | 81% | 1014.8 hPa | 0 mm | 1.34 m/s, 68° | 111 W/m² | - |
| 1777980967 | 15.56° C | 80% | 1014.8 hPa | 0 mm | 1.79 m/s, 69° | 111 W/m² | - |
| 1777980617 | 15.56° C | 79% | 1014.8 hPa | 0 mm | 2.24 m/s, 67° | 110 W/m² | - |
| 1777980248 | 15.56° C | 82% | 1014.7 hPa | 0 mm | 1.34 m/s, 76° | 239 W/m² | - |
| 1777979890 | 15.56° C | 81% | 1014.8 hPa | 0 mm | 1.79 m/s, 95° | 195 W/m² | - |
| 1777979527 | 15.56° C | 82% | 1014.7 hPa | 0 mm | 2.24 m/s, 66° | 336 W/m² | - |
| 1777979167 | 15.56° C | 82% | 1014.5 hPa | 0 mm | 2.24 m/s, 73° | 390 W/m² | - |
| 1777978450 | 16.11° C | 80% | 1015 hPa | 0 mm | 1.34 m/s, 86° | 209 W/m² | - |
| 1777978087 | 16.67° C | 77% | 1015.2 hPa | 0 mm | 0.45 m/s, 64° | 100 W/m² | - |
| 1777977730 | 16.67° C | 77% | 1015.3 hPa | 0.51 mm | 0.89 m/s, 64° | 120 W/m² | - |
| 1777977367 | 16.67° C | 78% | 1015.2 hPa | 0.51 mm | 0.89 m/s, 65° | 153 W/m² | - |
| 1777976648 | 16.67° C | 76% | 1015.4 hPa | 0.76 mm | 0 m/s | 127 W/m² | - |
| 1777976287 | 16.67° C | 77% | 1015.3 hPa | 0.76 mm | 0 m/s | 118 W/m² | - |
| 1777975930 | 16.67° C | 79% | 1015.3 hPa | 0.76 mm | 0.45 m/s, 67° | 172 W/m² | - |
| 1777975567 | 16.67° C | 79% | 1015.2 hPa | 0.76 mm | 0.89 m/s, 67° | 157 W/m² | - |
| 1777974847 | 16.67° C | 79% | 1015.2 hPa | 0.76 mm | 0.45 m/s, 67° | 229 W/m² | - |
| 1777974490 | 16.67° C | 80% | 1015.1 hPa | 0.76 mm | 0.45 m/s, 66° | 223 W/m² | - |
| 1777974127 | 16.67° C | 78% | 1015.1 hPa | 0.51 mm | 0.89 m/s, 76° | 246 W/m² | - |
| 1777973767 | 16.67° C | 79% | 1015.1 hPa | 0.51 mm | 0 m/s | 190 W/m² | - |
| 1777973408 | 16.67° C | 79% | 1015.1 hPa | 0.51 mm | 0 m/s | 153 W/m² | - |
| 1777973050 | 16.67° C | 74% | 1015.2 hPa | 0 mm | 0 m/s | 128 W/m² | - |
| 1777972688 | 16.67° C | 75% | 1015.2 hPa | 0 mm | 0 m/s | 140 W/m² | - |
* Rain latest hour (hover to see other rain measurements)
** Current wind speed in m/s (hover to see current wind gust speed)